Theta_e
300 301 301 303 303 303 303 303 303 302 302 301 299 300 293 293 292 302 305 308 305 297 291 293 290 290 292 295 296 297 296 296 297 296 297 296 297 297 296 296 296 298 297 297 296 295 293 294 292 294 295 296 300 302 302 302 301 300 298 299 300 302 293 290 292 296 298 300 301 301 302 301 299 299 300 299 296 297 296 294 296 292 293 291 291 287 294
301 302 303 303 303 303 303 302 302 302 302 301 300 296 294 295 296 297 305 308 303 295 286 286 287 290 293 294 294 297 296 296 295 294 296 295 296 296 297 298 299 297 299 298 294 297 291 296 295 294 299 297 303 303 302 303 299 298 298 295 302 292 295 293 288 288 291 293 297 297 300 300 297 296 298 300 300 300 300 298 299 291 293 293 290 286 291
302 302 302 303 303 303 302 302 302 302 301 302 301 294 297 296 299 299 299 303 301 292 294 292 289 291 292 293 292 294 295 296 295 296 295 298 297 296 295 297 299 296 298 297 298 299 295 294 297 298 299 300 305 302 303 304 302 301 302 305 304 295 294 292 286 283 281 281 282 285 289 294 297 299 298 299 299 299 297 291 293 288 294 295 291 291 300
301 301 302 302 302 302 302 302 302 301 301 301 300 297 293 292 285 292 295 298 299 297 299 297 294 292 293 289 293 294 292 294 295 295 295 298 298 297 298 299 299 296 296 295 295 295 299 295 295 297 298 299 302 304 303 302 302 305 308 304 304 296 298 297 295 291 288 291 294 298 298 296 293 296 298 298 299 300 299 297 292 289 293 292 296 299 299
302 302 302 302 302 302 302 301 301 301 301 301 300 297 293 294 287 290 289 296 296 293 295 294 296 293 296 288 293 292 292 295 295 299 293 296 296 296 297 296 294 295 294 294 295 296 296 297 298 295 296 301 303 304 304 303 303 306 303 305 302 299 295 298 297 295 294 294 300 302 298 296 296 296 296 298 298 299 298 292 291 297 293 289 301 303 300
302 302 302 302 302 302 301 301 301 301 301 301 300 292 295 288 294 296 299 290 287 289 290 294 294 297 298 293 295 293 292 292 291 295 295 296 298 293 296 297 297 297 297 297 292 295 296 297 292 297 299 298 302 300 303 301 305 305 302 304 301 297 291 299 299 296 297 300 301 300 299 298 298 299 298 298 298 300 297 297 298 298 291 289 301 304 301
302 303 302 302 301 301 301 301 301 301 302 301 299 291 295 296 296 296 300 290 294 293 294 296 295 295 297 294 294 293 293 292 294 294 295 295 296 297 289 294 297 297 298 296 294 296 292 290 298 298 299 299 299 299 301 303 307 304 302 302 303 297 293 299 298 297 298 299 300 301 299 299 300 299 299 300 300 298 298 298 300 301 299 301 301 303 303
302 302 301 301 301 301 301 301 301 302 302 301 297 295 291 291 291 291 296 297 294 298 299 299 295 292 295 291 296 293 293 294 295 296 296 291 293 298 294 294 297 299 298 298 294 298 299 298 293 301 300 299 299 300 300 300 303 302 300 300 305 298 292 299 299 294 295 300 301 302 302 300 298 300 299 298 298 298 298 300 303 301 300 304 303 301 297
301 302 301 301 301 301 301 301 301 302 302 298 295 296 298 297 298 298 292 290 294 298 299 297 295 292 295 292 296 295 295 292 296 296 299 296 293 296 294 296 297 298 298 298 298 300 300 299 299 301 300 294 302 299 300 302 298 299 300 300 302 300 295 301 298 289 292 297 299 300 302 301 297 298 298 297 296 298 302 300 305 302 299 300 302 297 295
301 301 301 301 301 301 301 300 301 301 301 298 298 294 302 300 302 300 295 289 294 295 299 298 296 291 296 296 297 295 296 297 298 292 298 298 298 299 298 299 297 297 296 297 299 304 302 302 303 303 301 303 303 303 303 302 299 299 301 302 299 297 297 292 293 288 288 297 300 299 298 299 293 294 298 302 304 304 303 305 305 304 305 299 294 298 299
301 301 301 301 302 301 302 301 301 301 301 298 297 297 298 296 294 296 297 290 292 295 294 296 295 297 297 297 298 298 298 299 300 294 291 298 298 301 300 299 297 296 297 300 305 306 307 307 306 307 304 304 302 303 304 304 303 300 300 300 299 299 298 294 298 288 289 297 297 298 293 285 286 297 301 301 301 303 300 299 301 303 306 302 303 299 299
301 301 301 301 301 301 301 302 302 302 301 302 301 298 301 301 299 297 293 288 291 297 294 291 294 295 296 298 299 298 295 297 299 300 296 298 299 301 301 300 299 293 302 307 307 306 307 307 307 306 304 303 302 303 302 303 303 303 303 300 298 296 295 292 295 290 290 295 295 290 282 285 292 297 300 302 304 303 300 300 302 303 303 302 300 298 298
300 300 301 301 301 301 302 302 302 302 303 303 302 297 301 303 298 295 293 290 288 293 290 295 299 298 299 299 300 299 298 301 302 302 301 300 298 300 301 300 300 301 307 305 305 303 298 296 300 298 298 300 300 301 301 301 300 303 306 304 301 296 294 295 291 292 293 292 289 281 283 292 297 298 300 303 303 302 301 298 300 302 302 301 299 299 299
300 300 300 301 301 301 302 302 302 303 303 303 301 301 302 302 297 295 294 289 290 293 296 295 296 297 299 299 299 299 299 299 302 302 299 301 298 299 301 302 303 307 307 307 303 301 295 296 291 292 293 296 297 295 297 300 301 301 301 302 303 302 299 293 290 296 287 288 288 287 294 294 296 295 298 300 298 300 300 291 296 301 302 300 296 295 295
300 300 300 300 301 301 302 302 302 303 303 303 303 302 302 302 301 297 296 293 288 292 296 290 294 296 297 297 299 298 297 299 298 299 301 302 300 301 302 304 307 305 306 302 299 299 295 293 288 288 287 288 285 286 296 294 300 303 303 303 304 303 294 296 293 290 293 290 287 287 287 284 290 300 304 306 307 307 305 300 295 302 302 301 298 295 295
300 300 300 300 301 301 301 302 302 303 303 303 302 302 303 304 303 300 296 292 290 288 293 294 295 296 295 297 299 297 294 293 296 298 297 299 299 302 304 306 307 307 305 301 301 295 293 290 287 287 286 287 293 290 288 295 294 299 304 304 303 302 302 299 294 291 291 288 286 285 284 286 296 300 303 304 306 306 307 299 293 300 303 302 300 297 296
300 300 300 300 300 301 301 302 302 302 303 303 302 302 301 306 302 299 295 294 293 290 295 295 298 298 294 296 299 298 298 295 298 293 292 294 298 300 302 305 308 306 301 301 298 294 291 290 293 290 289 295 290 288 294 292 292 292 299 303 300 298 297 296 292 289 290 289 286 285 289 287 297 301 302 303 307 304 303 289 290 299 303 303 301 298 297
299 299 300 300 300 300 301 302 302 302 303 303 303 300 302 305 305 302 297 294 292 294 301 301 297 296 296 297 297 301 302 302 300 300 296 297 298 298 300 302 300 302 303 296 297 293 290 290 288 288 287 294 295 294 286 293 290 290 290 293 291 292 292 293 290 292 290 288 289 289 290 296 301 301 302 304 305 303 290 286 293 301 302 303 302 300 299
299 299 299 300 300 301 301 301 302 302 303 303 304 304 303 306 305 303 298 296 295 291 299 302 301 298 300 303 302 304 302 303 303 295 294 293 297 301 301 301 303 295 299 294 296 291 290 290 296 293 290 291 294 288 295 290 289 296 297 290 292 291 291 292 292 290 289 290 287 287 290 297 302 302 303 305 298 289 286 296 303 303 302 303 302 300 300
299 299 300 300 300 301 301 301 302 302 302 302 302 299 303 306 306 304 299 294 297 295 298 299 299 298 302 300 300 299 300 301 300 298 295 291 302 301 298 293 299 299 296 299 290 295 290 289 290 295 291 291 293 299 293 293 297 294 293 295 291 291 288 288 288 290 291 290 287 286 283 291 303 302 301 302 293 293 298 301 302 302 302 301 301 300 299
299 300 300 300 300 300 301 301 302 302 301 301 301 301 301 307 306 307 306 301 296 291 296 303 302 302 303 302 304 303 302 299 302 299 300 301 303 299 289 289 295 295 292 292 288 289 291 290 293 290 297 295 296 294 288 290 294 299 299 296 295 298 290 289 291 296 287 287 285 285 292 297 302 302 293 298 299 302 303 302 299 301 300 299 299 298 297
300 300 300 300 300 301 301 301 302 301 301 300 301 303 299 306 307 306 306 304 297 294 300 305 304 303 306 308 306 308 305 305 306 309 305 298 304 300 300 299 299 299 301 301 297 292 295 296 299 292 290 293 297 290 295 289 287 295 300 299 288 299 297 296 290 294 291 288 289 293 299 301 302 302 300 301 303 304 304 303 300 299 299 302 299 296 296
300 300 300 300 300 301 301 301 302 302 301 300 301 300 297 301 303 307 305 299 301 302 304 304 306 306 307 308 309 310 310 310 312 310 310 304 297 301 300 300 300 304 303 303 299 298 297 296 290 296 292 294 292 291 294 293 289 293 291 298 297 300 301 304 298 291 295 296 296 296 297 298 298 302 302 301 302 303 303 301 299 300 301 301 299 298 297
300 300 300 300 300 301 301 301 302 302 301 301 301 300 300 303 304 303 302 301 299 296 301 305 302 297 301 302 306 309 309 309 311 313 316 310 299 297 302 303 304 303 302 307 308 300 298 295 298 298 291 297 298 291 288 288 289 297 294 293 298 299 301 301 294 295 293 286 295 295 295 298 299 299 301 302 303 302 303 302 301 300 300 300 300 299 298
300 300 300 301 301 301 301 301 302 302 301 301 302 303 304 302 304 303 299 293 296 295 291 295 299 303 305 307 308 307 308 311 313 313 312 312 308 302 302 308 312 306 303 306 308 301 297 292 294 293 289 300 298 290 296 291 292 298 290 294 295 293 302 297 296 295 291 288 292 295 297 297 299 299 299 299 300 301 302 302 302 301 301 300 300 300 298
300 300 301 300 301 301 301 302 302 301 301 301 301 301 300 300 304 306 304 303 302 300 292 292 298 305 306 305 303 306 309 310 310 310 311 309 309 311 310 310 307 310 308 307 305 298 296 294 293 294 292 293 300 293 292 297 297 299 294 295 298 298 299 291 296 290 290 293 294 295 296 295 296 299 300 300 300 300 300 301 300 299 299 299 300 299 297
301 301 301 301 301 301 302 302 302 301 301 302 302 302 302 303 306 306 303 305 301 295 295 293 297 301 303 302 305 307 308 309 310 309 309 309 309 310 310 309 306 305 304 303 304 299 297 295 295 294 298 293 299 298 298 296 296 292 292 297 300 296 293 296 294 289 288 289 290 295 289 288 293 296 298 299 300 300 299 299 298 298 298 298 297 297 297
301 301 301 301 301 301 302 302 302 302 302 303 304 304 306 306 308 310 310 308 302 295 294 294 296 299 305 301 304 306 307 308 308 308 308 308 309 309 309 307 307 305 303 300 294 294 294 293 295 295 296 300 297 293 299 299 298 294 294 294 297 295 296 295 290 290 290 296 297 299 300 297 295 296 298 300 300 299 298 298 298 298 298 298 297 295 296
301 301 301 301 301 301 302 302 302 303 303 303 305 306 308 310 312 311 310 310 309 303 300 299 302 302 295 299 305 304 306 307 307 307 306 306 307 307 307 306 305 305 304 301 298 297 296 295 296 295 295 302 298 292 295 289 289 287 291 294 296 299 300 299 297 297 297 299 299 299 297 293 294 296 297 298 299 299 298 298 298 297 297 297 297 297 296
301 301 301 301 301 302 302 302 303 303 303 304 304 306 302 305 310 311 310 310 310 307 298 293 290 293 305 303 302 303 303 305 305 305 305 304 305 305 305 305 305 306 304 298 297 294 296 296 295 301 302 304 296 294 290 291 288 288 293 295 297 299 299 299 299 297 294 297 298 297 296 295 296 297 297 297 298 298 296 296 297 297 297 297 296 296 297
301 301 301 301 302 302 302 302 303 303 303 305 304 298 296 293 303 312 308 311 312 307 301 298 294 298 297 303 304 300 302 302 303 303 303 303 303 304 305 306 305 304 297 297 297 296 296 293 293 296 300 300 296 293 290 289 286 287 292 295 296 296 296 297 298 297 297 296 296 296 295 295 295 295 295 295 296 296 296 296 297 297 296 296 296 296 296
301 301 301 301 302 302 302 303 303 303 305 303 301 302 304 305 309 310 310 309 313 308 299 294 292 293 293 297 301 304 303 303 303 303 302 304 301 303 303 303 299 303 298 296 296 296 294 295 293 297 296 298 295 293 292 290 286 286 292 293 295 295 297 297 297 297 298 298 296 294 293 293 295 292 290 294 295 296 295 295 296 296 296 296 296 296 296
301 301 301 301 302 302 303 303 303 304 303 305 305 304 304 304 304 306 307 310 309 306 306 295 291 292 292 296 302 302 302 304 301 301 299 304 300 302 298 303 302 301 302 297 294 292 297 294 294 292 297 301 292 291 290 286 287 292 293 293 294 295 295 296 297 297 297 298 298 293 290 290 291 293 294 295 295 295 295 294 295 296 295 294 294 294 294
301 301 301 301 302 303 303 303 303 302 304 304 305 309 311 306 309 305 311 313 311 307 301 294 290 291 291 301 296 299 303 298 297 300 292 301 303 301 296 298 299 293 298 296 295 296 296 294 293 292 296 293 293 290 284 287 291 292 293 293 294 294 295 295 295 294 295 295 296 296 295 295 295 294 294 293 293 294 295 295 295 293 293 293 293 293 294
301 301 301 302 302 303 303 303 307 308 306 306 307 312 311 301 303 308 308 311 302 294 294 294 295 291 290 292 290 295 302 301 294 297 292 296 303 298 297 293 294 292 291 302 294 294 291 293 298 292 289 296 290 285 286 288 290 291 292 292 293 293 292 291 291 293 294 295 294 293 294 295 293 292 292 292 292 293 293 293 293 292 292 292 292 293 294
301 301 302 302 302 303 307 308 307 306 304 302 307 308 302 306 305 314 314 316 309 299 293 292 294 292 292 288 287 291 302 297 299 299 297 296 297 300 298 294 289 293 300 295 291 295 291 297 294 289 292 288 285 287 288 292 290 291 291 291 293 293 292 291 290 292 293 293 293 293 293 294 293 292 292 292 292 292 292 292 292 293 292 292 292 293 293
301 302 303 303 306 307 304 301 307 307 307 309 306 305 304 308 318 314 312 308 311 309 300 293 292 293 296 291 293 294 299 290 298 295 297 293 290 294 295 291 288 292 292 291 292 291 294 300 293 287 287 285 286 292 292 292 292 291 291 292 293 293 292 292 293 292 291 291 292 292 292 291 291 291 290 291 291 292 292 291 291 291 291 291 291 291 291
302 302 305 305 303 295 295 299 306 311 304 304 305 307 306 305 298 299 299 299 300 303 297 300 293 297 299 297 289 298 299 293 300 292 292 295 291 290 293 291 290 291 286 288 291 299 294 292 288 286 285 292 293 293 293 293 294 294 294 294 294 294 293 293 293 292 290 288 288 289 289 289 289 290 289 290 291 290 290 291 291 291 291 291 291 292 292
302 306 304 304 300 294 295 304 311 304 308 308 307 300 295 297 296 292 293 295 294 294 296 297 293 297 297 295 294 301 299 293 293 295 290 295 292 287 292 287 289 291 287 287 289 299 288 288 288 287 285 289 290 292 295 295 295 295 295 295 295 295 295 294 294 293 291 290 290 291 290 288 289 289 291 291 291 292 292 292 292 292 292 293 294 294 294
305 301 298 298 296 301 306 308 306 307 306 299 299 297 291 295 292 288 295 291 292 293 294 292 298 298 300 295 293 293 302 298 291 290 291 292 299 290 290 291 290 289 284 285 287 298 289 285 287 287 285 289 290 294 295 295 295 295 296 296 296 296 296 295 294 295 294 293 293 293 293 293 293 292 292 291 291 291 292 293 294 296 296 296 296 295 295
300 300 302 296 302 302 305 305 308 305 299 295 294 293 292 289 293 294 291 290 290 290 298 297 297 296 298 300 298 293 299 305 301 300 294 289 296 297 289 286 291 287 284 284 289 292 290 288 287 286 286 291 292 294 295 295 295 295 296 296 296 297 297 296 296 295 293 293 293 293 294 294 294 294 294 294 295 294 294 294 295 295 295 294 294 294 294
297 297 299 301 301 303 304 304 300 296 295 296 290 287 290 290 293 292 292 288 288 292 295 298 292 295 294 300 298 298 296 302 298 295 293 288 291 290 287 290 290 286 282 288 291 290 289 284 285 285 289 293 295 296 296 295 295 296 297 297 296 297 296 295 294 294 295 294 295 295 295 296 296 295 295 294 294 294 295 294 294 294 294 295 295 294 294
300 301 301 301 301 300 299 293 295 294 287 287 287 285 289 286 288 288 288 293 298 295 295 304 301 302 302 303 298 301 296 301 296 293 291 288 293 292 289 287 286 282 286 293 290 286 284 284 284 288 293 294 295 295 296 296 296 297 297 297 297 297 296 296 296 296 297 297 297 296 296 295 295 295 296 296 296 296 296 295 295 296 296 295 295 295 296
303 303 298 297 294 295 295 285 294 290 287 289 286 281 285 285 287 290 288 290 294 294 298 296 296 296 291 299 296 293 294 297 296 294 291 293 291 287 286 284 285 289 294 289 287 284 284 287 289 291 294 295 295 296 296 296 296 296 296 297 297 297 297 297 297 297 297 297 297 297 296 296 296 296 297 297 296 295 295 296 297 296 296 296 295 295 296
297 295 294 292 289 292 290 282 293 289 284 286 289 288 287 285 288 290 290 294 297 295 297 298 297 297 293 299 298 296 295 291 295 291 286 291 287 289 286 285 289 290 288 284 286 285 286 285 292 293 294 294 295 295 296 296 296 296 296 297 297 297 297 297 297 297 296 297 297 297 297 297 297 296 297 297 297 298 297 296 296 296 296 296 295 295 295
293 292 291 285 282 288 289 285 287 285 290 292 289 292 292 293 293 293 298 299 297 298 296 297 297 298 294 296 293 291 294 294 290 290 291 291 286 284 289 293 291 286 285 286 283 282 284 288 291 293 295 295 295 296 296 297 297 297 296 295 296 297 297 297 297 297 297 297 297 297 297 298 297 296 297 297 297 297 297 297 297 297 296 295 295 295 295
294 294 294 291 287 289 292 286 287 290 293 294 296 296 296 296 297 299 299 300 300 299 299 300 300 299 294 293 293 292 294 294 289 290 292 287 285 287 291 288 282 285 281 281 283 285 287 291 293 295 296 296 295 296 296 296 297 297 296 296 296 296 297 297 297 297 297 298 297 297 297 297 297 297 297 297 298 298 297 298 298 297 296 295 295 296 296
289 294 293 285 284 289 286 289 295 295 296 297 297 298 298 299 298 296 298 300 301 301 299 298 295 296 294 298 298 292 292 292 288 289 291 288 289 287 285 284 284 286 286 285 286 290 292 293 295 295 296 296 296 296 296 296 297 297 296 296 296 297 297 297 297 297 298 297 297 297 297 298 299 298 297 296 296 297 298 298 297 297 296 296 296 296 296
294 291 288 288 290 290 290 294 294 292 294 296 297 298 297 297 297 298 299 302 301 299 301 299 295 294 291 293 292 290 288 291 286 286 289 288 285 281 282 280 282 282 286 289 291 293 294 295 296 297 297 296 296 296 296 297 297 297 296 297 297 297 298 297 298 298 298 298 298 298 298 298 298 298 298 297 296 296 298 299 298 297 296 296 297 297 297
290 290 292 290 290 291 294 295 293 291 294 295 296 295 297 296 296 299 301 299 300 300 300 297 297 293 292 291 288 289 288 291 289 289 287 285 285 286 285 282 284 285 287 291 293 296 297 297 297 296 297 296 296 296 296 297 296 297 298 298 298 298 297 298 298 298 298 298 298 299 299 298 298 297 297 297 297 297 298 298 298 297 297 296 297 297 297
294 292 292 295 290 290 292 288 288 289 291 293 294 295 296 295 297 297 301 301 301 298 295 292 292 291 290 288 287 284 286 292 288 287 286 286 289 287 284 283 286 291 294 297 298 298 298 298 297 296 297 296 296 297 297 296 297 297 298 298 298 298 298 299 298 298 299 299 299 294 299 299 299 299 299 299 298 297 297 297 298 299 298 297 297 298 297
290 288 289 292 295 295 295 295 295 294 294 296 296 297 298 296 299 299 302 301 299 294 292 294 292 289 286 285 287 291 292 289 287 288 286 289 290 287 286 290 292 295 296 296 298 298 298 298 298 297 297 296 297 298 298 297 298 298 298 298 299 298 298 299 298 299 299 299 299 299 299 300 300 300 299 299 298 297 296 296 297 299 298 298 298 299 299
Wind_Speed
12 13 12 11 11 7 8 9 7 5 4 6 4 2 5 6 5 3 7 10 15 11 9 10 9 11 10 11 13 10 9 10 10 12 8 10 9 9 6 5 6 7 8 8 9 8 7 14 10 10 14 13 8 7 13 14 17 17 11 15 11 8 5 10 11 13 15 17 18 20 18 16 18 18 16 15 15 16 13 11 10 11 11 12 9 6 4
11 11 11 10 7 7 9 8 6 5 6 5 4 6 7 5 4 2 4 12 13 10 8 10 9 10 11 12 11 7 9 11 11 10 8 7 5 5 4 5 7 8 7 9 9 11 5 10 11 12 15 5 9 6 11 9 12 14 10 11 11 7 9 11 9 8 10 12 10 17 13 11 12 14 15 16 16 19 15 11 6 7 12 13 10 7 3
9 11 11 8 5 7 5 5 5 4 4 6 4 5 4 5 3 1 4 8 9 9 9 5 5 10 10 12 11 10 10 9 11 9 7 8 9 5 7 8 6 7 7 10 11 12 11 6 7 2 11 7 9 10 12 12 8 13 8 9 10 9 9 11 11 12 15 14 13 13 14 17 11 15 19 19 19 20 15 12 9 7 11 14 7 7 7
9 10 7 6 7 8 7 5 4 3 4 6 5 4 3 4 4 4 6 8 8 10 11 8 7 8 11 8 10 11 11 8 8 7 9 8 7 5 6 6 8 11 10 11 11 13 12 7 4 7 7 1 3 6 13 16 12 7 7 4 8 7 7 9 4 7 9 8 11 11 12 12 15 17 18 17 16 17 16 10 8 7 7 10 7 15 16
8 6 2 4 7 4 4 4 3 2 3 6 5 5 5 4 4 3 6 7 9 9 8 9 10 5 6 6 8 11 10 7 5 8 4 0 6 6 7 6 7 8 11 12 12 13 12 12 8 9 7 7 3 5 6 13 11 6 5 5 4 6 8 2 3 3 3 5 5 2 14 17 17 17 17 16 15 12 13 8 9 9 5 7 12 20 18
6 3 9 8 5 4 3 2 3 3 4 6 5 5 5 6 1 3 4 4 5 9 8 11 9 9 6 8 7 9 10 8 5 6 1 5 4 4 5 9 11 13 10 9 8 13 14 13 11 13 7 8 5 6 5 8 4 3 8 12 8 5 5 8 3 4 6 2 3 5 10 12 16 15 12 14 15 11 8 10 11 9 7 2 9 12 17
5 11 8 6 2 1 1 1 3 3 5 5 5 5 4 5 5 5 6 3 5 9 7 11 11 10 8 6 7 6 8 8 7 2 4 7 8 10 7 9 10 10 10 6 7 15 12 10 12 11 10 10 9 6 6 6 7 11 10 10 9 8 8 5 8 4 3 1 0 1 10 7 9 14 13 10 9 7 8 10 9 6 3 15 11 12 11
11 8 7 4 2 1 1 2 2 4 5 6 6 7 5 1 4 4 7 7 9 4 3 5 8 8 8 6 7 7 7 8 4 7 7 3 7 8 12 11 7 6 7 8 10 9 9 9 8 10 10 8 5 5 6 3 8 12 12 10 6 8 1 4 8 6 5 4 3 4 6 8 3 3 6 3 2 7 13 10 3 3 12 12 19 16 11
9 7 5 4 5 2 3 4 3 4 4 5 5 4 4 3 3 4 6 7 5 5 6 7 7 6 7 7 5 5 7 3 9 5 6 8 7 4 6 4 4 4 6 5 6 8 11 10 11 9 9 6 4 3 3 5 9 14 10 8 5 10 3 3 5 7 5 6 7 6 6 10 10 7 7 7 11 12 9 6 4 0 8 13 16 15 9
6 6 6 5 4 4 4 4 3 4 4 5 3 5 3 4 3 3 5 5 5 6 6 7 7 6 5 7 5 4 2 5 6 1 5 5 6 4 9 11 3 4 8 4 3 11 11 8 7 8 8 6 8 4 6 7 10 8 6 8 6 10 7 7 7 8 6 8 8 10 9 9 9 9 6 3 6 8 10 11 11 8 8 9 4 5 10
8 9 9 7 6 6 5 4 3 5 5 5 4 4 4 4 5 5 4 5 5 6 7 6 9 4 2 8 5 3 2 9 3 2 1 2 3 4 3 7 11 4 8 6 3 11 6 8 8 7 8 11 9 5 7 9 8 11 9 7 8 11 8 5 5 7 6 10 8 6 4 9 6 5 2 8 3 3 8 8 11 12 6 4 8 14 15
10 8 7 7 7 6 6 4 4 4 6 6 6 6 3 3 4 4 3 4 5 7 4 6 3 5 7 5 6 1 5 7 3 4 4 5 2 4 3 1 6 7 7 3 2 9 9 10 11 10 11 12 10 4 4 5 4 6 10 6 4 10 9 8 10 7 5 7 8 7 11 6 2 3 2 4 3 9 14 12 11 12 12 15 16 16 16
8 8 8 8 8 7 6 7 5 5 6 5 5 7 2 3 4 4 5 4 7 6 5 7 1 3 1 4 1 3 3 2 3 6 5 5 1 5 3 3 6 11 7 3 4 6 9 6 4 8 9 5 7 4 4 5 6 3 2 8 3 5 10 4 2 2 3 7 8 8 4 4 4 3 3 1 6 9 12 12 10 8 10 12 15 14 14
9 8 8 9 9 8 8 7 7 6 6 5 6 6 4 4 3 3 3 4 6 7 6 7 3 3 4 4 3 3 3 3 6 3 3 5 2 5 5 7 9 8 7 5 2 5 6 3 0 6 5 5 8 3 3 4 2 6 3 3 6 9 3 2 2 7 8 9 9 3 8 6 6 6 5 7 6 8 1 3 6 6 7 11 13 14 13
9 9 9 9 9 9 8 9 8 7 7 7 7 5 4 2 2 3 3 4 6 10 9 2 7 7 6 5 4 4 3 3 4 5 7 4 2 4 8 9 5 1 2 5 5 6 6 6 5 7 7 8 5 5 8 4 4 8 7 6 9 7 4 5 7 6 8 8 7 6 6 7 5 3 9 0 7 5 7 12 8 4 8 11 12 14 14
9 9 8 9 9 9 10 9 9 9 9 9 5 6 5 2 2 3 4 4 5 4 3 7 5 8 6 5 4 5 4 2 6 2 4 5 7 10 7 3 1 4 5 6 4 4 5 4 6 5 6 6 6 8 5 8 8 10 9 13 8 6 9 12 8 4 4 2 4 5 6 3 1 8 7 4 4 3 3 3 6 5 8 10 11 14 14
10 9 8 9 9 9 10 10 10 10 10 10 6 5 3 3 4 4 4 4 3 6 4 4 4 3 5 3 2 5 5 3 3 2 2 4 7 7 7 3 2 5 4 4 3 3 3 4 4 6 3 3 6 4 7 6 6 5 8 7 11 11 7 5 5 4 5 7 6 2 3 2 4 8 6 6 4 0 4 5 6 8 8 9 11 13 14
10 8 8 8 8 10 11 11 11 11 11 11 7 5 4 3 4 4 4 5 4 5 3 4 5 3 2 7 2 2 3 5 4 3 1 3 5 6 5 4 5 3 4 2 1 2 2 2 5 4 3 1 3 0 4 7 6 5 6 8 6 6 4 4 5 5 5 6 5 5 4 4 6 5 3 4 2 4 4 5 7 9 9 9 10 12 12
9 8 8 8 9 10 10 11 12 12 11 10 7 6 4 5 5 5 6 6 5 3 4 7 5 5 10 9 7 4 4 3 7 2 2 3 3 4 1 3 7 1 4 1 2 1 2 0 4 3 2 3 6 3 2 4 3 1 2 3 4 3 2 3 3 4 4 3 5 5 6 4 6 4 4 4 1 4 2 6 4 10 10 10 11 12 12
9 8 8 9 9 9 10 10 10 10 9 10 8 5 3 4 6 8 8 6 5 7 8 5 6 8 6 7 5 1 3 6 8 3 4 1 2 4 3 2 5 3 1 3 1 3 2 1 1 1 2 5 3 3 2 4 1 0 5 2 4 0 3 4 5 2 1 3 5 7 4 1 3 6 5 5 2 4 5 7 9 10 10 11 10 11 12
9 9 9 9 9 9 9 10 10 9 8 10 9 5 4 2 4 6 6 6 5 5 2 4 5 7 6 6 6 6 7 7 8 5 6 1 2 4 2 0 3 2 1 2 2 2 2 1 2 2 3 2 5 4 2 3 4 3 6 1 1 7 4 4 2 7 4 7 4 2 7 9 7 4 1 7 8 8 8 9 11 10 10 11 10 10 11
10 9 9 10 9 10 10 11 11 8 8 9 11 6 5 1 1 2 3 3 5 6 5 9 9 11 10 6 4 5 6 7 7 6 5 3 4 3 4 2 2 3 4 3 3 0 3 1 2 0 3 2 2 3 3 5 4 6 2 2 3 8 4 5 4 7 5 5 5 7 7 8 8 10 10 9 8 7 8 10 11 11 9 10 10 12 13
10 9 9 9 10 10 10 10 10 7 7 9 8 5 6 7 3 3 3 6 7 10 10 10 8 9 10 11 6 5 4 4 4 4 4 6 1 5 3 3 2 3 2 3 6 6 2 2 2 1 2 1 1 2 2 4 2 5 3 5 6 4 5 3 7 9 14 13 10 7 7 8 9 9 9 9 8 9 10 11 10 9 10 10 11 13 14
10 10 9 10 10 10 10 10 10 8 8 8 8 6 6 6 7 5 5 6 4 4 5 8 5 3 6 7 6 4 5 5 6 4 1 2 3 1 4 3 2 3 1 4 4 5 4 3 5 4 1 3 4 2 2 3 1 4 5 5 4 5 2 1 5 9 4 5 5 8 9 8 9 8 8 9 8 9 9 10 10 11 12 13 14 14 15
11 11 11 11 11 11 11 11 10 9 9 10 10 7 7 8 7 6 5 3 1 4 1 5 5 5 5 5 5 7 7 6 4 5 4 3 4 5 4 5 6 5 4 4 2 5 1 2 2 1 2 3 4 1 3 2 5 2 2 5 3 5 0 6 9 8 3 7 8 8 8 6 6 7 8 10 10 9 10 10 11 13 13 14 15 15 15
12 11 11 11 11 12 12 11 11 10 10 12 11 7 7 7 6 5 6 7 7 6 0 5 8 5 6 6 10 9 7 7 7 7 7 6 8 6 4 2 2 2 2 2 2 4 2 2 2 1 3 2 1 4 2 6 5 4 4 8 7 5 4 2 7 6 8 9 9 9 9 8 6 6 8 8 9 11 13 13 15 15 16 16 15 14 14
13 12 12 12 12 12 12 12 11 10 12 13 9 8 8 8 7 7 7 5 5 3 2 5 5 7 8 11 8 7 8 7 6 7 7 8 7 5 4 2 2 2 2 2 1 2 2 2 1 1 4 3 2 3 2 3 3 3 5 6 2 3 4 7 5 5 5 7 10 14 6 6 7 8 9 10 11 13 15 15 15 15 16 16 17 15 14
14 14 14 12 13 13 12 12 11 12 13 14 12 10 9 9 7 7 7 7 6 3 1 5 5 7 5 11 9 9 9 9 8 8 8 8 8 7 4 3 2 1 2 2 2 2 2 3 3 2 1 3 2 2 1 4 2 3 4 5 8 5 8 3 0 2 2 12 15 7 5 12 10 10 9 11 12 13 15 15 15 15 15 16 18 19 17
15 15 14 14 13 14 13 12 12 13 14 13 10 10 9 9 7 6 6 6 7 6 5 3 3 2 3 6 5 9 10 9 10 9 8 9 9 8 7 7 5 3 4 5 3 2 3 4 3 0 2 4 4 3 4 3 3 3 5 4 3 3 3 8 8 12 12 10 9 6 8 10 12 12 12 11 11 13 15 14 15 15 15 15 15 16 18
16 16 16 15 16 15 14 13 14 13 12 9 8 6 4 5 5 5 5 6 6 3 3 3 3 3 2 4 6 6 8 9 10 11 11 9 9 7 7 5 6 6 4 2 2 2 2 2 2 4 5 4 3 2 2 3 5 4 2 1 2 3 7 7 9 4 9 10 10 11 13 14 12 13 12 11 11 12 14 15 15 15 14 15 16 15 14
18 17 17 17 17 16 15 15 14 12 12 7 6 3 3 3 4 4 5 5 7 5 5 1 4 3 4 2 3 5 7 7 8 7 9 8 7 7 6 5 6 3 4 3 3 2 3 3 2 3 2 8 5 2 3 4 4 4 3 2 4 5 5 7 11 14 13 14 14 14 14 14 13 14 13 12 13 14 14 14 14 14 15 15 15 14 14
20 19 18 19 19 17 16 15 14 11 7 6 6 3 3 3 3 6 1 5 6 6 4 5 2 2 2 2 3 4 3 1 4 4 5 3 6 5 8 6 6 7 5 4 4 4 5 3 3 4 4 7 5 3 2 3 5 5 6 6 7 7 7 8 10 11 11 14 16 15 14 12 11 12 11 11 12 14 16 16 16 16 15 15 14 14 15
20 20 20 20 20 18 15 15 13 8 7 9 16 16 17 18 17 11 8 6 5 6 5 1 2 1 1 5 5 3 3 6 5 1 5 3 5 2 4 3 5 5 0 1 2 3 4 3 3 3 4 1 2 3 6 6 6 8 7 7 7 8 8 9 10 10 11 10 9 11 13 12 13 15 17 14 13 15 16 17 17 15 15 16 16 16 15
21 21 22 22 20 17 15 13 14 12 11 6 5 3 3 1 4 7 6 5 5 5 3 2 2 2 3 2 3 5 7 2 4 0 4 3 3 1 3 4 4 3 4 3 3 3 3 2 3 4 5 4 3 4 4 5 7 7 8 9 9 9 9 9 9 9 7 7 10 13 16 17 16 15 16 17 16 15 15 15 16 17 17 16 16 15 15
23 22 22 22 18 15 16 13 7 4 4 6 1 5 4 2 6 5 8 5 4 2 1 1 1 3 2 2 1 5 4 3 3 3 3 2 4 5 2 2 1 1 2 2 3 2 2 2 1 2 4 4 3 4 3 7 8 8 8 9 10 11 11 9 9 10 11 13 14 15 16 18 19 16 16 17 16 16 17 16 16 16 16 15 15 15 14
24 22 20 19 18 11 6 4 4 5 3 1 4 4 1 5 6 5 7 6 4 3 3 2 3 2 2 3 2 2 4 5 2 3 3 1 5 2 3 1 4 5 3 2 4 3 4 2 3 3 2 3 4 3 5 8 9 8 9 9 8 8 8 10 11 12 13 14 16 16 16 16 18 18 16 17 17 17 17 16 15 15 16 15 15 14 13
24 21 19 17 7 3 4 2 1 2 2 5 9 12 11 6 4 3 5 5 6 6 4 3 4 3 5 6 1 3 5 2 2 2 2 2 3 0 1 3 5 2 3 3 3 4 5 7 6 7 5 5 5 6 7 6 7 7 7 7 7 9 12 11 13 16 18 18 19 17 17 18 17 16 16 15 15 15 16 16 16 15 16 15 13 12 12
22 19 8 3 3 1 1 2 1 4 8 9 8 4 4 5 3 3 3 3 1 3 1 5 1 5 2 1 3 2 5 3 4 2 2 0 2 3 1 2 2 1 3 2 4 7 5 3 5 6 5 6 7 7 6 6 7 6 7 8 9 10 11 14 16 17 20 19 17 18 17 17 17 14 15 17 17 16 14 14 13 11 12 11 10 10 11
17 5 4 3 3 3 2 1 5 8 7 6 4 2 3 2 3 3 2 2 1 3 0 4 4 2 3 4 5 2 4 1 2 2 1 3 2 3 2 1 1 1 3 3 2 6 3 4 4 5 6 5 6 6 6 7 7 7 7 9 10 12 12 13 14 15 15 15 17 17 17 17 17 16 14 14 13 13 13 13 12 12 12 12 12 12 12
2 4 3 5 3 1 5 5 8 7 4 3 3 3 3 2 3 3 2 3 2 2 2 2 3 1 5 2 5 5 1 5 1 4 2 4 3 2 1 1 2 1 3 1 3 4 3 4 3 4 6 4 6 6 7 8 9 9 10 11 12 13 13 13 12 12 14 16 17 16 15 14 13 13 13 14 14 14 13 13 14 14 14 12 10 11 11
7 6 4 1 6 6 6 8 6 4 3 4 2 2 1 3 2 1 2 4 2 2 3 2 4 4 2 2 3 3 4 3 2 4 3 3 1 3 2 2 1 1 2 3 1 1 3 4 3 4 5 6 7 8 8 9 10 11 11 12 13 13 15 14 15 16 18 16 14 13 12 12 13 13 12 13 13 14 13 12 12 11 12 11 11 11 11
7 7 7 9 9 8 7 3 3 3 2 1 3 2 2 2 1 3 3 3 3 2 6 5 4 6 5 2 5 4 3 3 1 2 1 2 1 1 2 0 0 0 2 2 1 1 0 3 5 6 6 8 9 9 9 10 11 12 13 14 13 13 15 16 17 17 18 17 15 14 13 15 15 14 13 12 11 11 11 12 12 13 13 12 12 12 11
21 13 7 6 3 3 2 3 3 2 2 1 2 3 2 2 3 4 4 2 2 2 4 2 4 5 6 2 5 4 3 1 3 1 2 2 1 1 1 1 0 3 2 2 1 2 2 2 4 7 9 10 10 10 10 11 12 13 13 13 13 14 17 18 18 17 17 15 15 15 14 13 13 12 12 12 12 13 12 12 12 12 12 12 12 11 11
4 3 4 2 2 2 2 4 3 1 3 3 3 4 5 4 4 2 2 4 5 3 6 6 6 7 4 1 0 3 2 4 1 1 3 1 1 2 0 2 3 3 2 2 1 3 2 2 4 9 11 10 9 11 12 12 13 13 13 14 15 16 16 16 16 16 16 15 15 14 13 13 13 12 12 12 12 14 12 11 11 12 12 12 12 11 11
3 2 2 2 2 3 2 1 3 3 4 5 4 5 5 6 4 4 3 4 5 5 7 5 7 6 4 3 1 2 3 2 1 1 1 0 2 2 1 2 2 2 1 2 2 3 3 5 8 11 13 12 12 13 12 13 13 14 15 16 17 17 16 16 16 15 14 14 15 14 14 13 12 12 12 12 12 11 11 12 12 12 12 12 12 12 11
3 4 3 4 1 2 3 2 2 5 5 4 5 8 8 8 6 7 6 4 5 7 7 7 7 4 4 3 2 2 3 2 2 2 0 0 2 2 2 1 1 0 0 2 2 2 4 7 8 11 12 13 14 14 13 14 14 13 15 16 16 16 16 16 15 15 14 14 14 13 13 12 11 12 12 11 11 11 11 11 11 11 11 12 12 11 11
3 2 3 3 5 4 3 6 7 4 6 8 9 8 7 5 7 3 5 4 3 5 6 6 5 4 4 4 2 2 1 0 2 1 1 1 2 2 0 0 0 1 1 1 1 1 5 10 10 12 13 14 14 14 15 14 14 15 14 14 15 16 16 16 16 15 15 15 14 14 13 12 12 12 12 11 11 11 11 11 11 11 11 12 12 12 12
4 3 3 5 5 5 10 6 7 8 9 8 7 6 7 7 6 4 4 4 2 6 7 7 5 5 4 2 4 1 3 2 3 1 1 2 1 0 0 1 1 1 1 2 2 3 8 11 12 13 13 14 14 14 14 15 16 16 16 16 17 16 15 15 15 15 15 15 14 13 12 12 11 11 11 12 12 11 10 10 11 11 12 12 11 11 11
3 2 3 4 4 5 7 9 10 11 9 7 7 9 8 6 7 7 6 4 4 6 6 6 3 3 3 3 2 2 1 3 2 2 1 2 1 2 2 1 0 1 2 3 2 6 10 11 14 15 16 16 15 14 14 14 14 16 16 15 15 15 15 14 14 15 13 12 12 12 12 11 11 10 10 11 12 12 11 11 11 11 11 12 11 10 10
3 4 3 4 6 8 9 11 12 9 9 10 9 9 8 8 9 6 6 5 6 6 7 4 3 3 3 2 2 2 2 2 1 2 2 2 2 2 1 1 1 2 3 2 3 7 10 13 14 15 16 16 16 15 16 16 15 14 15 15 14 14 14 15 15 15 13 11 12 11 12 11 11 10 11 11 11 11 11 11 10 11 11 11 10 10 9
3 3 4 8 8 7 8 10 12 11 9 10 10 10 9 10 9 8 6 5 6 5 4 4 4 2 3 2 1 2 1 1 1 3 2 3 2 2 2 3 4 1 6 5 6 9 11 13 14 14 16 16 16 16 16 17 16 15 15 15 15 13 13 14 15 13 13 11 11 12 11 10 10 11 11 10 12 11 11 10 10 10 11 10 10 10 9
4 7 7 8 12 10 9 9 9 11 10 9 10 9 9 10 9 8 8 6 6 7 7 4 4 3 2 3 3 1 2 1 2 1 2 0 1 2 2 2 4 5 5 5 6 9 11 12 13 16 16 16 17 17 17 16 16 16 15 14 14 14 14 13 13 12 11 11 11 11 11 10 11 10 11 11 12 11 11 10 9 9 10 9 9 9 9
Wind_Direction
282 281 282 295 293 253 224 215 162 174 230 255 258 241 233 220 253 92 206 172 188 196 221 208 212 226 233 242 243 233 227 246 233 239 240 250 219 249 256 268 268 252 263 270 263 270 226 203 184 199 176 197 189 231 206 187 200 198 187 193 173 179 219 190 214 207 196 194 186 202 212 202 199 207 221 214 208 210 222 216 209 216 215 222 201 198 122
286 281 285 294 276 226 209 210 177 173 228 284 285 244 253 243 245 196 200 208 201 216 214 203 215 222 228 238 248 233 240 226 232 234 245 244 209 276 282 286 250 270 253 251 244 254 266 196 213 180 121 152 193 243 195 223 201 193 172 206 146 196 206 216 186 202 200 193 207 195 182 215 218 204 209 210 209 212 219 239 210 227 222 230 225 159 159
297 292 290 295 259 200 199 210 170 204 222 264 276 259 289 287 252 93 158 201 208 222 222 261 241 214 225 223 223 234 231 244 266 275 255 236 244 243 259 262 271 257 267 268 261 243 234 208 223 237 113 162 140 194 201 220 222 178 171 223 156 216 188 207 196 198 192 183 195 198 194 203 214 219 203 209 211 206 201 216 198 222 226 211 210 110 114
300 298 309 286 201 178 183 177 179 210 227 262 247 254 276 228 230 139 175 198 211 250 270 277 271 255 214 218 234 232 239 209 217 238 247 262 280 283 280 265 257 258 264 261 254 245 226 204 196 207 116 133 140 153 184 203 227 106 76 248 189 199 216 214 252 233 208 209 205 197 200 190 209 209 214 204 217 211 213 215 213 213 221 224 169 135 144
295 307 349 132 145 149 176 162 200 215 241 259 276 269 251 314 271 176 172 178 220 238 230 237 241 237 241 232 204 232 237 234 197 169 248 187 269 267 255 261 257 249 242 246 248 232 225 180 196 184 186 130 141 148 171 192 173 82 200 133 195 212 213 156 128 52 56 327 301 23 212 198 199 209 209 213 207 216 224 214 207 202 236 219 121 146 149
331 79 127 125 131 187 167 169 222 209 244 247 264 259 215 236 203 340 316 258 186 206 223 230 223 237 228 225 229 227 217 192 215 112 272 296 225 243 230 238 241 251 257 252 234 218 204 185 193 194 156 175 169 163 167 200 126 245 205 190 214 218 213 159 141 78 36 31 313 197 217 215 202 205 207 214 213 203 224 223 229 209 234 172 142 145 154
98 116 114 106 108 200 172 228 252 238 217 228 253 273 231 261 320 299 336 270 241 199 216 212 227 226 227 236 231 234 235 192 190 192 214 215 242 234 256 248 250 240 232 219 245 212 199 180 188 176 169 173 168 165 175 201 186 204 203 188 180 205 227 167 195 143 114 32 202 154 209 212 213 194 199 216 219 178 213 223 223 252 14 120 123 97 104
99 102 101 122 179 66 269 280 253 224 197 234 258 247 281 327 351 327 332 266 290 273 208 218 219 224 210 237 226 233 224 201 153 225 227 235 258 232 241 255 268 253 261 241 226 215 236 190 173 169 180 143 208 183 196 170 197 207 199 186 115 223 145 297 171 153 185 170 175 190 175 147 141 137 134 138 306 242 219 201 83 173 103 134 116 108 87
46 48 55 47 28 353 316 290 239 191 210 247 235 269 252 308 305 311 308 299 246 236 217 219 213 218 203 219 203 218 206 200 239 249 216 234 248 266 272 275 195 232 272 208 266 308 265 202 196 170 188 186 148 202 187 211 180 190 185 174 155 216 178 187 220 204 165 179 170 177 170 147 154 178 133 162 193 193 161 118 44 231 129 139 126 126 136
51 45 22 38 23 348 332 303 200 218 244 283 267 252 34 301 266 280 289 286 267 263 201 221 218 220 220 229 187 216 213 239 185 108 249 264 251 223 199 189 222 148 200 156 265 202 198 208 185 186 176 137 147 182 268 197 193 172 167 162 174 197 196 193 200 214 185 184 177 168 173 147 152 149 111 74 81 95 98 87 71 69 142 148 177 112 138
29 26 23 17 9 1 349 327 287 243 240 269 300 312 346 346 335 325 297 276 273 246 265 224 228 33 243 200 230 189 192 228 133 347 15 321 118 199 236 185 162 149 128 154 134 65 40 119 121 121 123 122 131 168 222 201 195 176 178 174 182 186 197 201 212 208 186 167 161 172 153 197 178 51 53 318 133 106 99 79 68 48 89 108 95 126 132
18 20 19 3 349 358 348 352 330 298 284 288 300 292 311 309 306 300 311 278 279 294 285 267 256 140 250 157 232 240 210 244 257 8 296 288 242 18 44 144 115 141 127 190 91 100 125 114 116 106 143 161 149 173 196 84 142 163 175 187 173 185 173 211 199 210 189 159 147 174 200 180 45 214 338 339 44 81 87 82 75 90 94 101 110 125 131
13 9 11 4 4 355 356 345 343 326 308 306 297 281 309 326 324 325 300 295 286 315 276 243 128 338 353 291 227 192 232 277 329 297 284 289 226 68 38 17 105 118 159 142 138 110 75 32 11 103 64 70 119 211 162 156 13 312 63 85 221 203 198 163 95 176 186 184 176 184 172 71 153 123 190 164 118 118 102 82 76 82 95 109 118 122 122
2 6 2 9 5 358 352 348 342 336 321 308 290 289 311 296 301 310 309 307 291 274 282 300 284 196 257 266 270 145 186 239 280 327 235 225 230 62 81 99 103 128 135 144 265 128 93 98 179 113 117 178 160 105 291 132 174 277 333 161 199 231 126 108 120 205 189 181 189 122 122 128 137 163 160 180 152 173 265 128 102 90 101 112 113 112 117
1 354 355 358 357 356 357 349 346 334 323 314 293 286 272 273 287 294 321 306 294 303 289 317 16 358 323 272 234 184 200 248 300 188 183 176 139 90 112 116 132 130 159 227 210 178 146 156 162 152 157 174 157 152 176 177 173 170 202 228 223 199 147 199 212 165 204 178 129 153 171 184 159 166 158 156 35 315 118 102 106 118 104 125 135 132 132
353 351 349 355 349 351 351 353 345 343 339 337 304 290 285 268 245 270 282 298 307 288 39 11 337 326 317 295 196 167 198 252 290 178 150 163 130 132 125 122 59 327 277 243 178 183 165 173 154 168 168 188 166 143 182 165 181 158 174 172 152 174 181 213 210 179 169 114 164 179 171 85 80 123 120 70 189 330 108 180 121 133 130 137 140 139 139
356 354 353 349 348 343 349 348 347 347 341 338 317 307 292 184 213 241 249 254 248 290 15 22 324 328 321 276 163 184 195 243 253 166 156 147 139 132 143 155 270 276 318 287 180 181 182 215 188 170 102 158 168 173 153 185 155 167 155 168 173 188 204 185 196 168 182 155 169 162 38 109 147 117 136 165 71 109 251 207 162 150 144 135 141 146 146
354 353 351 344 343 345 344 348 346 345 340 342 321 312 300 172 216 237 259 256 283 287 21 2 311 276 244 341 293 184 248 250 251 233 226 139 149 150 145 192 204 149 311 277 202 241 209 213 207 203 156 37 34 11 208 156 180 177 198 192 194 193 211 207 213 203 172 204 120 131 118 63 91 125 155 86 315 249 201 214 122 146 132 135 137 145 148
354 354 350 351 343 345 344 344 343 339 345 347 338 293 243 220 200 220 268 280 265 281 322 327 324 275 287 285 266 288 245 354 304 216 166 182 93 76 125 45 333 150 205 318 283 253 212 179 344 258 174 171 207 221 118 198 155 22 85 174 159 193 222 217 242 237 222 197 220 89 87 77 115 120 121 77 197 198 195 74 126 129 128 119 136 137 140
358 356 351 349 346 344 345 337 335 332 340 353 340 313 295 232 223 227 239 267 308 299 288 301 303 312 318 342 345 258 228 200 235 246 196 169 139 227 193 172 187 299 198 317 232 348 294 196 209 197 237 158 175 27 134 56 25 202 217 192 254 130 217 218 210 205 246 204 213 155 174 169 233 134 129 16 297 72 111 125 109 122 119 122 124 131 122
355 354 351 349 344 342 338 334 329 339 355 344 338 314 308 225 216 228 242 276 300 298 274 181 289 301 323 356 6 348 336 351 349 332 327 96 146 225 210 242 125 164 160 186 261 160 249 235 173 202 20 309 117 224 207 148 160 66 356 265 80 12 267 228 113 14 230 206 208 67 58 106 33 284 150 84 71 113 120 124 122 117 125 124 121 117 119
348 349 346 347 337 341 335 329 332 337 350 335 333 314 288 212 258 343 297 284 257 245 277 326 305 279 282 310 303 320 337 337 343 341 325 315 192 267 15 316 8 15 9 331 149 43 217 290 22 355 194 156 175 218 150 177 187 122 86 323 209 24 49 23 46 22 27 34 82 116 81 96 78 70 85 98 104 107 118 116 125 129 124 131 121 121 123
347 345 347 338 336 330 330 326 332 338 340 338 326 310 315 313 327 8 303 252 251 258 268 268 272 262 255 249 266 2 352 345 331 342 349 312 258 209 264 318 5 4 294 342 350 336 4 138 225 233 214 178 222 145 186 271 125 156 159 50 56 81 42 104 97 89 92 75 78 95 109 89 80 82 87 100 105 101 114 122 124 126 123 125 125 125 125
345 345 338 333 324 326 328 327 325 330 325 311 313 311 293 302 307 305 257 242 270 299 249 225 232 45 35 42 14 31 358 38 15 10 48 328 317 242 185 186 356 224 190 50 356 340 359 346 12 331 269 56 330 221 191 195 109 122 115 151 109 64 2 331 95 157 191 85 114 99 104 106 86 91 97 96 107 109 114 118 119 120 120 118 121 125 128
342 340 332 323 323 325 328 328 324 322 312 303 301 281 274 269 255 235 272 296 251 281 72 71 45 11 67 18 38 26 20 10 19 19 25 347 326 329 15 22 359 347 16 10 299 262 242 277 204 223 255 78 300 262 49 307 139 183 182 131 155 136 285 85 87 76 40 112 131 120 101 100 113 121 115 107 105 109 110 112 115 115 114 120 121 124 123
336 331 325 320 323 324 326 327 323 311 299 299 296 284 274 269 275 258 259 263 265 271 193 82 78 57 40 50 41 30 16 23 26 46 40 46 41 35 70 112 63 19 346 292 267 261 268 237 283 284 236 144 253 282 88 35 54 47 342 73 17 75 200 179 115 97 100 107 122 129 117 91 96 105 99 118 119 115 113 113 115 118 119 120 120 118 124
333 329 323 323 319 321 324 321 319 309 297 293 290 275 268 271 260 253 251 282 300 213 176 96 97 75 62 56 43 42 37 42 40 42 51 43 63 73 72 70 75 125 227 184 244 281 260 273 260 331 15 57 322 40 60 153 86 93 92 79 29 235 194 102 105 130 175 176 166 155 140 145 130 123 124 121 124 121 120 121 121 123 123 122 121 117 119
329 325 321 318 318 316 319 314 310 300 292 291 280 271 260 263 254 245 239 252 276 341 33 130 106 97 83 58 44 45 39 44 42 57 56 60 54 55 66 65 24 75 124 176 175 212 218 229 105 61 77 64 214 140 276 80 144 128 97 62 355 38 8 249 205 321 160 127 150 182 38 111 130 130 130 127 125 129 127 126 125 122 123 125 124 125 124
324 322 318 318 313 312 313 311 303 294 295 294 278 277 264 241 242 222 228 235 262 265 276 103 124 124 56 53 42 62 55 50 54 52 55 58 61 61 55 44 59 69 35 20 26 63 51 47 16 292 75 19 310 148 134 172 173 121 61 20 347 44 0 71 79 87 78 111 123 112 119 125 131 129 125 127 131 130 127 122 121 123 126 127 124 126 127
324 321 318 315 312 309 311 303 299 293 296 290 281 267 246 165 197 218 198 220 226 253 270 120 95 91 155 47 60 60 66 58 55 51 51 55 53 48 55 63 58 38 48 63 97 109 72 73 68 76 81 358 300 153 211 101 98 71 46 12 323 131 58 30 3 42 105 77 93 102 111 118 120 119 120 124 126 123 124 126 125 126 126 127 126 126 127
323 319 317 312 307 306 304 302 294 297 291 269 282 269 204 150 124 173 181 206 229 252 280 96 90 108 86 12 355 49 65 56 56 49 56 54 46 54 55 60 60 71 98 68 70 102 170 123 125 120 127 15 333 203 151 139 129 109 87 52 84 69 68 71 71 78 94 102 105 106 109 110 113 112 110 113 120 123 121 121 119 118 121 122 120 121 123
324 319 315 310 306 306 304 298 292 287 272 267 275 306 2 4 21 358 349 214 252 249 249 120 162 144 77 115 79 303 51 113 115 85 62 20 70 52 67 53 64 40 45 79 89 63 50 63 73 66 77 347 323 80 73 130 121 121 105 77 75 84 93 108 104 106 116 119 121 116 114 119 127 124 123 125 123 124 123 121 122 122 120 121 119 119 119
322 319 312 306 306 307 303 294 287 279 274 299 309 291 280 269 272 261 248 253 250 255 262 172 92 125 177 104 158 102 308 238 100 47 70 349 84 81 74 86 92 89 346 145 74 107 120 109 119 102 74 43 79 80 75 74 97 116 122 116 103 98 100 107 116 120 129 139 146 132 129 126 118 119 123 124 123 120 123 124 125 126 123 122 123 123 122
321 315 310 306 306 308 303 298 293 280 263 254 265 172 145 97 223 206 243 237 272 259 234 110 182 208 97 201 216 87 315 26 71 92 97 37 317 162 93 105 65 71 15 76 142 107 90 87 89 101 115 84 97 103 92 97 111 118 117 111 111 113 113 117 120 121 114 99 104 115 118 119 118 118 119 121 120 121 123 126 128 128 129 127 128 128 125
318 312 307 306 308 309 303 296 293 246 276 273 156 84 89 197 293 190 197 241 256 196 65 263 217 148 193 174 134 79 299 287 91 52 79 59 336 67 64 60 37 91 66 297 66 57 96 72 68 114 91 108 85 80 105 133 125 123 125 123 121 113 103 99 102 108 109 114 115 118 124 126 123 122 123 124 125 127 126 126 129 130 131 133 131 131 129
314 308 305 305 306 299 281 233 220 273 254 116 69 113 128 263 204 208 206 248 274 300 173 189 215 171 190 143 113 106 252 95 108 99 71 155 100 14 93 99 100 56 12 5 85 107 86 338 265 93 74 80 49 63 115 125 126 130 130 135 143 136 125 121 116 113 116 119 120 123 126 127 122 122 122 123 127 129 129 129 133 132 129 133 133 130 130
307 306 305 294 275 202 234 255 272 262 346 321 298 305 300 271 184 191 201 233 214 223 265 183 225 93 357 74 116 109 250 130 207 87 69 83 69 9 102 112 86 124 116 119 111 81 67 27 63 74 57 82 101 101 115 130 134 137 135 134 132 122 127 129 126 120 118 119 121 121 120 119 119 122 125 127 129 132 134 134 134 135 132 130 130 136 140
305 301 290 233 205 248 284 252 265 5 333 289 270 254 181 220 193 186 201 214 123 256 239 262 93 94 223 194 100 87 270 95 270 118 107 51 162 88 69 73 80 222 93 102 92 103 83 58 71 86 74 78 93 100 111 119 116 118 126 130 132 135 133 134 135 130 125 123 123 122 119 120 122 126 128 131 133 133 130 127 130 131 134 143 145 146 144
289 274 244 233 187 212 241 14 6 316 283 270 237 248 172 209 221 200 173 108 209 201 208 269 111 204 167 98 93 103 332 338 176 178 135 78 317 95 276 120 102 214 131 168 120 250 89 92 109 108 103 111 100 106 127 125 127 131 130 130 134 133 137 138 139 138 138 136 137 138 133 132 133 135 134 130 130 132 138 143 147 156 157 152 149 148 143
301 220 190 201 194 0 326 347 336 307 257 235 200 235 181 252 210 176 221 224 213 83 219 159 58 2 354 93 144 117 61 305 7 101 103 111 315 29 93 68 111 262 86 61 68 270 138 125 121 122 115 117 103 127 128 125 121 126 128 129 130 128 128 128 128 123 120 120 125 125 123 124 131 138 142 144 149 154 155 158 160 154 143 138 137 136 133
7 340 322 351 7 330 322 316 297 248 253 227 185 246 188 200 245 101 187 217 198 140 302 49 159 162 162 257 178 119 118 269 21 43 65 72 11 290 80 68 325 60 86 86 107 246 126 123 131 121 123 129 129 132 127 124 122 125 128 131 130 128 127 127 126 126 125 126 128 133 142 148 148 145 144 145 144 137 135 133 129 131 130 134 136 129 126
333 312 313 304 289 284 286 250 248 225 226 239 174 213 202 189 158 229 235 228 164 174 177 195 170 174 157 322 77 101 114 341 342 272 245 100 348 351 97 130 251 105 82 73 162 102 57 114 127 116 133 137 136 137 131 128 132 135 135 135 135 133 132 131 133 136 138 142 148 150 152 154 146 139 138 139 141 142 142 138 132 137 141 135 128 134 138
286 265 251 286 253 224 204 242 216 234 190 249 220 176 185 215 213 212 191 256 50 224 130 327 47 57 86 228 105 9 52 343 288 7 70 89 178 266 76 78 143 88 95 182 225 105 124 127 130 134 146 142 143 140 137 135 136 136 137 139 142 142 141 146 151 153 154 150 146 143 141 140 140 144 148 144 141 137 133 136 140 135 131 135 136 134 135
281 265 243 221 242 189 186 213 186 209 240 201 181 181 189 215 196 221 223 179 176 201 147 193 166 202 147 257 92 134 164 167 253 88 87 126 244 96 168 86 63 75 175 216 156 116 112 122 127 138 147 145 148 147 144 141 140 142 145 146 145 143 145 145 144 144 142 141 139 139 144 150 149 147 143 140 141 138 139 135 132 134 134 133 133 135 133
275 220 233 231 206 181 148 273 184 208 202 198 202 204 188 206 193 201 205 119 200 161 161 190 167 201 135 136 192 125 282 105 159 246 112 220 64 24 47 93 117 194 201 123 120 107 116 124 132 141 151 156 152 149 148 146 147 149 147 145 146 147 147 147 145 143 141 143 143 147 147 142 142 142 142 142 141 137 134 132 134 137 137 134 133 134 138
233 225 208 190 323 271 199 195 162 209 211 199 210 221 196 207 199 207 107 145 196 145 179 167 185 169 139 168 274 119 171 167 130 47 1 221 97 74 41 74 240 246 301 189 154 175 159 151 153 149 157 155 155 153 153 152 151 150 151 148 148 148 147 145 143 143 142 141 144 148 141 140 143 141 143 139 139 138 134 135 143 137 132 134 135 137 141
256 270 265 225 214 201 214 214 199 208 206 209 207 214 219 197 213 171 118 210 185 168 161 170 190 159 157 162 174 143 233 118 97 110 273 67 76 101 299 268 227 178 145 136 207 168 139 147 152 150 155 152 155 155 155 155 157 154 154 145 148 150 149 148 148 148 145 150 148 145 146 144 146 144 142 141 140 135 136 141 135 134 137 136 139 141 142
248 235 226 216 210 196 200 209 211 208 216 218 215 217 212 218 209 138 153 227 215 154 168 172 170 149 166 128 276 184 139 105 118 150 16 98 131 199 133 231 220 193 209 220 182 149 132 142 148 151 153 149 154 156 156 156 160 157 150 153 156 156 153 151 152 147 152 149 145 151 147 147 144 143 147 142 140 139 147 141 136 138 138 141 142 146 147
286 300 253 215 216 204 209 205 219 218 196 213 221 212 213 206 207 187 155 198 187 182 163 180 153 180 158 167 210 110 160 149 173 143 178 213 166 175 197 166 187 198 198 277 80 119 133 142 144 151 152 155 155 156 155 158 157 151 157 161 155 154 153 155 151 151 156 150 152 151 150 149 148 148 142 144 145 147 149 142 145 142 146 147 149 150 152
247 225 243 234 208 215 202 201 210 213 200 196 205 216 202 206 211 163 146 179 194 172 173 182 163 218 129 168 198 165 187 193 145 142 209 193 195 202 210 166 205 225 155 178 114 122 129 139 146 153 156 155 156 157 157 157 157 154 159 158 158 158 159 157 154 158 161 157 155 154 149 151 154 152 152 152 147 149 149 152 151 150 151 154 156 157 156
222 257 229 225 224 200 195 207 201 207 206 201 202 209 206 216 209 156 178 195 167 166 178 179 174 176 147 191 171 183 194 89 175 197 204 202 188 187 167 195 214 251 80 80 102 128 135 143 153 155 156 157 159 158 159 157 160 160 160 161 161 161 161 161 159 163 163 160 157 156 158 163 156 156 152 150 148 155 154 156 158 157 153 157 163 164 159
213 209 218 215 226 228 213 213 209 211 213 206 203 204 201 215 203 157 160 198 177 185 186 174 168 172 162 180 193 144 110 213 240 201 230 191 155 200 195 283 57 97 117 130 121 131 141 152 155 157 159 159 161 159 160 160 164 163 166 167 166 164 163 165 163 167 165 163 160 164 163 166 157 157 157 157 156 163 161 164 169 165 162 165 168 168 166